Presure
120 155 172 206 222 193 164 164 101 90 93 100 128 93 95 97 98 95 92 99 148 113 118 111 105 131 100 118 114 107 133 121 119 110 122 117 100 120 120 127 141 130 111 119 123 119 117 142 105
206 185 192 222 213 191 158 161 177 103 97 108 121 121 82 93 95 99 90 84 97 153 159 125 123 87 122 108 109 129 120 103 118 109 125 118 120 132 114 124 130 132 130 127 129 117 124 113 107
201 248 200 169 217 197 158 159 161 117 99 105 99 107 122 92 114 92 98 97 100 96 92 87 93 131 133 108 133 140 112 121 99 139 135 133 126 123 125 121 117 131 125 132 120 108 112 150 89
215 207 201 91 186 66 63 171 64 177 177 180 158 104 94 102 97 97 97 91 92 83 102 104 94 95 87 150 167 158 110 118 137 105 103 99 108 132 119 118 127 110 118 122 98 150 138 139 133
218 200 215 205 180 201 76 166 152 113 175 161 161 158 122 88 94 87 117 95 104 93 94 96 105 97 97 102 153 117 130 130 99 144 150 94 123 119 129 121 135 132 126 123 128 134 141 143 133
214 187 212 205 174 196 151 134 121 180 83 155 185 116 96 77 116 92 145 105 130 104 109 107 89 109 104 141 103 119 125 141 139 117 100 144 131 151 144 111 124 115 122 117 139 133 127 121 137
208 178 192 207 94 153 133 119 137 166 170 168 186 77 74 119 80 126 167 102 125 123 101 140 111 103 111 115 99 109 87 125 134 145 141 130 145 135 128 119 125 146 130 92 131 122 135 141 133
244 203 178 197 206 209 186 166 198 129 159 164 167 116 79 118 79 117 148 166 77 114 106 87 94 97 84 77 155 134 108 104 97 86 82 84 148 140 136 112 134 140 106 124 133 130 124 139 138
225 213 181 212 196 167 182 178 157 200 138 166 165 143 130 132 73 114 145 114 76 74 151 83 105 93 76 78 122 103 162 81 81 78 121 121 122 104 144 148 138 124 123 125 130 128 138 135 126
252 230 206 174 203 165 160 183 171 207 166 167 158 176 103 122 178 161 133 139 121 81 72 80 79 73 93 82 157 79 82 127 77 133 133 115 125 78 127 83 98 104 130 89 133 133 115 168 141
297 263 239 186 197 225 198 174 231 213 141 109 165 161 117 169 169 167 160 84 84 80 72 77 77 76 73 79 74 80 79 81 91 78 127 87 134 80 82 88 126 83 87 139 84 91 133 160 155
289 287 251 202 184 209 218 186 197 206 187 181 116 152 168 179 90 183 77 89 78 103 102 81 124 79 83 78 77 76 79 77 80 79 82 104 155 142 88 135 137 100 134 121 103 157 141 146 142
287 280 262 251 179 194 216 201 198 234 213 219 181 188 159 178 181 171 179 82 80 79 75 82 115 116 154 104 108 86 143 153 109 154 89 115 84 149 107 158 130 154 160 159 149 146 146 133 148
297 280 271 252 250 182 206 208 205 201 217 203 180 181 166 161 180 153 176 182 165 158 125 131 123 96 122 74 90 159 90 152 152 149 146 149 149 153 152 150 149 151 148 143 142 144 147 152 152
287 278 270 252 252 237 261 189 151 199 204 235 205 186 181 166 167 175 171 178 179 165 178 133 137 132 128 136 131 142 140 144 140 139 140 144 147 148 151 144 151 150 149 150 150 152 144 137 146
290 267 300 261 240 212 179 157 179 180 198 197 174 190 191 172 179 167 152 169 172 177 164 165 151 157 156 164 157 151 148 140 137 143 144 141 138 143 149 146 151 146 135 135 143 144 142 146 147
298 279 270 264 248 230 190 175 216 204 200 184 223 209 186 186 175 169 157 166 181 180 178 171 175 157 163 150 162 158 149 149 151 155 156 154 152 152 158 151 149 139 149 145 148 147 142 147 147
293 283 277 262 249 236 225 196 177 176 197 203 223 231 134 146 188 176 171 166 174 168 181 140 170 167 162 158 157 161 166 148 146 142 139 141 140 154 158 153 150 137 139 138 135 133 132 143 155
285 280 268 252 247 234 231 246 185 194 192 167 199 231 233 203 177 187 177 176 170 172 181 172 177 174 168 162 159 162 160 158 159 157 148 155 160 145 144 138 141 144 146 147 147 144 141 151 148
285 286 264 261 249 246 235 232 254 180 173 173 171 222 177 232 196 185 198 183 176 187 181 177 176 160 163 175 170 144 150 159 160 163 165 159 123 162 160 159 155 160 155 161 156 153 145 146 151
325 292 273 261 252 227 235 244 235 201 202 182 210 174 192 188 162 179 185 197 180 177 170 167 177 183 173 169 177 174 169 162 160 159 162 166 159 156 159 156 163 162 161 161 156 159 165 162 159
313 291 268 263 255 250 250 244 236 210 200 179 173 245 212 220 215 135 127 192 176 178 180 177 170 170 173 172 159 183 181 171 170 169 167 159 170 169 167 170 171 168 169 169 170 133 167 171 173
351 290 277 266 256 254 259 255 239 226 192 189 192 180 246 165 137 130 172 154 191 187 177 183 177 149 163 169 184 171 183 183 183 182 176 164 153 137 165 167 170 170 162 167 168 178 180 182 180
342 292 289 264 265 266 265 259 253 246 229 199 195 187 186 217 176 149 148 153 180 191 190 174 179 164 190 177 168 180 176 169 166 171 184 183 182 183 182 181 178 130 158 173 169 186 193 159 136
278 303 290 294 285 266 262 263 250 252 223 235 200 192 187 186 209 235 179 227 209 158 172 192 185 182 177 169 172 154 180 169 169 168 153 165 191 186 181 185 184 185 184 154 183 158 179 137 164
325 276 280 288 290 256 254 254 255 254 243 230 228 201 198 193 190 189 178 165 160 165 168 153 162 197 190 148 161 181 171 176 178 200 184 197 201 197 182 177 171 153 146 169 149 172 163 135 131
320 318 308 273 282 290 303 270 253 254 252 244 231 226 206 203 198 193 201 191 162 164 163 170 178 185 151 150 149 149 150 140 137 168 177 179 177 179 194 190 196 194 127 189 153 164 179 174 185
279 306 306 319 274 281 311 294 303 249 255 253 244 231 224 214 208 204 205 241 241 199 170 164 168 169 169 195 195 195 162 179 176 165 144 145 149 153 189 187 185 176 177 180 180 130 183 183 134
295 281 282 294 269 275 274 306 306 307 277 257 253 251 240 233 230 220 215 224 232 231 222 192 181 188 184 175 178 176 169 168 180 201 187 180 177 147 179 170 205 153 200 188 193 121 170 140 181
303 302 307 263 315 309 269 266 274 292 290 303 274 256 251 243 238 235 233 225 217 215 216 235 225 193 187 181 181 181 190 192 184 184 181 183 195 203 200 176 198 193 173 168 132 178 182 172 210
Wind_Speed
38 62 69 80 87 72 71 74 43 31 33 41 50 24 25 24 25 21 13 18 44 24 31 27 24 42 20 33 28 23 38 33 31 26 30 29 24 29 31 32 32 33 30 31 31 32 34 38 27
77 72 75 88 79 74 68 74 77 47 38 49 51 42 13 24 27 28 20 8 19 50 49 28 30 9 31 28 29 40 35 23 31 25 36 31 32 35 32 34 35 35 35 36 35 33 37 35 31
75 107 80 57 84 74 75 69 73 32 28 44 39 41 47 27 39 19 27 24 27 23 16 12 16 37 43 29 34 40 29 36 19 42 43 42 37 35 37 35 34 39 36 39 32 32 35 36 23
84 78 76 42 63 3 6 88 7 73 76 79 74 39 34 42 36 30 31 20 20 12 30 29 19 20 12 47 44 43 34 36 44 30 19 20 32 40 36 37 38 34 37 38 26 38 44 43 45
85 74 83 76 66 85 22 72 69 41 81 77 63 72 57 22 30 18 45 29 38 23 21 21 34 23 21 29 48 36 43 43 25 44 41 19 42 40 42 40 42 43 43 43 45 44 42 42 46
81 69 76 77 71 86 62 62 50 83 30 73 77 61 38 18 47 26 58 34 47 40 42 37 15 29 32 47 31 38 37 46 45 32 26 44 44 42 44 38 45 42 45 42 46 48 48 43 47
78 68 69 79 25 78 53 68 66 84 83 82 79 24 20 58 22 58 68 43 60 47 34 46 43 33 41 43 27 38 15 44 46 48 48 47 46 48 48 47 47 44 49 26 50 48 50 49 50
97 80 73 80 92 97 71 75 91 65 77 84 82 50 31 55 24 59 67 68 15 36 42 20 25 29 15 9 50 43 39 36 31 21 19 21 46 47 47 42 50 46 38 51 52 54 51 52 53
87 83 75 88 88 66 74 80 81 100 68 87 85 73 66 67 20 58 71 54 22 18 61 20 29 27 13 14 53 28 50 20 20 19 48 46 50 41 49 47 50 53 53 53 55 56 54 43 49
105 85 81 82 86 73 80 86 82 102 82 89 75 85 47 58 82 79 69 70 61 27 16 21 19 14 32 24 56 21 24 37 21 57 56 47 52 21 56 30 39 44 55 39 56 58 41 45 52
103 108 99 87 84 98 88 83 106 105 65 56 85 82 52 88 74 82 79 38 32 30 14 19 22 19 19 28 18 26 27 30 31 29 53 30 58 30 32 31 58 35 36 54 41 45 56 47 47
101 101 109 88 81 93 95 89 95 93 88 88 61 78 87 89 41 85 32 46 31 45 39 30 59 30 35 29 23 24 30 31 36 33 38 48 54 59 44 60 60 49 59 56 49 49 57 52 56
100 103 110 104 83 86 96 93 92 101 98 107 90 93 84 88 88 83 82 43 36 34 24 40 50 57 66 49 48 42 57 59 46 57 49 50 39 52 33 52 53 52 52 52 55 56 56 62 58
96 103 105 106 108 83 91 95 89 86 96 95 89 91 88 83 89 75 82 84 86 82 68 68 63 46 58 25 42 65 46 61 60 61 61 59 60 58 57 57 58 57 59 61 62 60 59 60 60
98 98 103 110 102 98 101 92 73 89 91 108 98 94 92 86 86 88 84 86 88 87 85 69 70 71 65 69 63 68 66 63 62 64 64 62 63 62 60 62 60 61 61 62 61 61 63 67 64
98 100 96 107 102 92 87 73 83 86 89 92 82 92 93 88 89 84 73 85 88 87 77 81 76 76 76 73 75 71 69 67 65 67 66 66 66 65 65 64 64 65 66 66 66 66 68 68 67
98 97 102 105 102 98 88 83 98 87 87 83 96 94 91 90 90 87 81 84 89 87 85 84 86 78 78 75 78 76 72 71 70 71 70 70 70 69 68 66 66 65 67 68 68 69 69 71 70
92 91 95 101 101 98 94 84 81 80 89 89 102 100 63 70 90 89 88 83 85 83 87 66 84 83 81 79 79 82 80 73 72 70 70 70 69 70 70 68 68 69 71 71 70 69 69 73 76
93 94 96 98 99 99 95 98 86 83 85 79 82 106 100 96 85 91 90 89 84 86 88 86 87 91 85 82 81 83 81 79 80 78 76 78 79 68 68 69 70 72 74 76 74 73 74 77 76
88 92 94 99 100 99 95 94 94 80 81 80 77 96 84 101 95 89 95 90 88 92 90 91 89 78 84 92 89 74 76 82 82 85 87 81 53 82 79 79 76 81 78 82 77 75 75 77 81
81 89 89 95 96 92 95 96 79 83 88 84 87 81 85 88 77 85 89 95 90 88 85 85 89 94 88 86 93 93 90 87 85 83 85 87 82 77 79 75 85 85 84 85 81 84 88 86 89
83 83 88 92 95 99 99 92 83 88 83 71 82 100 91 95 94 67 65 91 86 88 91 89 86 86 88 88 78 95 96 92 94 94 92 87 94 94 91 91 93 92 92 90 91 66 90 97 101
54 78 84 88 94 97 96 89 84 80 85 83 82 79 102 77 70 67 81 74 93 93 90 92 91 75 84 88 94 87 94 94 96 98 101 92 80 70 89 90 94 92 85 91 88 101 103 103 101
62 74 78 85 90 91 90 85 85 82 83 88 84 81 82 92 81 75 72 80 88 93 95 89 92 85 97 94 87 93 92 89 87 90 100 103 105 105 104 102 102 67 78 97 95 104 102 81 73
69 73 71 75 80 82 81 80 86 81 82 86 88 83 83 82 89 100 78 97 98 82 88 96 95 95 94 89 90 74 92 87 86 86 76 85 102 104 105 107 106 106 105 84 99 85 99 75 87
46 67 69 68 68 76 79 78 81 82 86 88 90 89 88 83 84 82 82 86 78 88 86 81 86 98 97 76 83 97 89 93 94 99 96 99 100 102 99 99 96 79 75 95 81 97 90 67 65
41 46 52 66 65 65 66 77 77 81 86 88 87 89 89 88 87 86 86 86 91 88 89 90 89 92 81 79 78 78 79 71 69 87 93 94 93 94 101 102 105 105 69 105 79 92 103 98 106
55 45 47 45 66 64 56 67 63 81 83 85 87 87 89 90 88 89 89 97 99 93 89 92 92 93 92 98 97 95 86 93 92 86 78 78 81 82 99 99 98 95 99 100 101 57 100 105 66
45 51 50 49 60 62 63 54 55 58 75 82 83 85 87 87 88 89 91 92 95 100 100 97 95 94 95 95 96 96 92 93 93 97 93 93 94 81 92 92 102 85 104 101 104 60 91 70 103
37 39 40 54 40 44 61 63 61 58 63 59 79 84 84 86 88 89 91 93 95 98 100 102 104 98 98 96 96 96 98 99 97 96 96 95 96 97 98 95 98 99 94 92 74 99 99 98 112
Wind_Direction
233 237 225 223 223 218 225 224 233 232 235 235 234 239 245 248 250 247 247 256 231 228 242 247 266 247 283 256 264 275 253 267 273 282 276 280 300 281 284 284 282 286 293 291 295 301 304 297 306
222 226 222 223 220 215 227 227 221 235 237 236 232 221 203 243 242 249 242 224 249 228 231 241 245 229 242 275 275 256 266 286 271 278 271 277 277 276 283 283 286 287 290 292 294 301 299 305 307
222 218 224 225 225 213 227 226 226 220 230 233 231 233 231 238 229 244 251 253 255 255 244 232 255 242 239 271 258 247 265 268 264 258 264 268 276 279 282 287 288 288 293 291 297 303 303 298 315
221 221 221 238 212 231 252 224 233 214 219 221 226 233 233 237 239 239 243 241 245 216 256 256 255 263 239 237 241 237 279 271 257 287 280 287 287 273 284 287 283 297 293 292 302 294 290 294 297
221 220 220 220 217 224 241 221 227 226 219 225 222 227 237 238 236 230 237 246 250 247 245 246 259 259 257 270 236 262 258 260 282 255 254 280 278 283 280 285 276 281 287 292 290 291 291 295 295
220 222 217 218 218 225 228 231 227 220 227 225 220 238 240 245 234 237 230 235 235 251 254 254 230 247 262 244 269 262 254 253 257 264 286 259 271 263 267 293 283 293 290 295 285 287 291 296 294
218 221 216 215 215 233 232 237 230 227 222 223 219 244 251 238 247 235 231 241 242 238 246 231 260 258 268 269 264 267 280 261 256 254 257 264 261 267 274 285 282 276 282 296 287 294 291 292 295
219 217 216 213 216 221 215 215 222 233 225 223 222 228 235 241 255 243 231 231 255 238 249 230 245 255 244 248 242 249 270 275 281 286 290 287 262 264 267 292 273 274 294 290 285 289 295 292 293
217 216 216 219 221 223 215 218 222 223 230 223 225 228 228 233 259 242 233 243 253 266 235 238 241 252 260 267 266 259 252 281 284 291 273 268 273 288 267 269 270 283 287 288 286 291 292 293 297
218 217 218 220 218 225 219 220 218 221 228 223 229 220 232 230 226 230 241 236 248 252 261 253 259 260 261 267 247 277 276 259 292 261 261 280 272 303 272 301 291 292 280 300 285 287 297 292 293
210 215 217 218 216 217 215 219 220 220 233 236 224 227 229 231 226 228 231 250 249 260 253 263 263 264 279 272 277 276 282 281 278 287 262 283 267 293 293 290 280 297 297 280 300 298 293 288 288
209 210 216 220 217 219 215 219 222 220 222 219 238 231 228 226 239 225 256 240 260 251 253 260 247 263 258 270 277 282 278 282 282 283 285 278 260 267 288 272 273 288 278 284 292 282 284 283 285
209 209 214 218 219 216 215 221 222 219 218 221 221 223 231 225 228 230 229 248 262 265 261 264 249 256 247 259 261 273 252 251 266 255 277 271 285 269 278 269 276 272 275 275 276 278 278 288 283
208 209 211 217 218 216 216 220 222 223 222 221 221 222 228 232 224 237 229 229 232 235 244 247 253 261 252 269 267 250 270 252 253 255 259 260 263 264 265 267 270 271 272 275 278 279 279 284 286
208 207 211 216 218 218 215 219 220 220 223 221 221 221 223 230 232 227 230 228 231 234 232 249 248 252 255 254 259 254 256 256 260 261 264 263 264 266 268 270 271 272 274 276 279 281 281 286 286
208 207 207 213 216 214 216 223 219 220 223 226 225 221 222 228 227 234 240 232 233 235 239 237 245 244 248 250 251 254 255 259 262 261 262 265 269 269 268 271 271 273 281 283 282 282 285 287 289
207 206 208 214 215 216 217 216 220 220 221 226 227 222 225 224 229 235 236 238 231 234 236 236 238 245 244 252 251 253 256 257 259 260 261 262 265 267 268 271 274 279 278 280 283 283 286 288 291
206 207 208 213 215 219 220 217 221 219 223 223 227 226 238 232 227 232 235 236 235 239 237 245 242 242 244 247 251 253 253 259 260 262 265 266 268 269 270 272 274 278 279 281 284 286 288 289 290
205 206 207 213 216 219 220 223 219 223 223 224 228 228 227 225 230 229 234 235 238 238 235 239 237 241 244 246 249 251 254 257 257 260 263 265 266 269 270 273 274 275 277 278 280 283 285 287 288
206 206 206 210 215 219 221 223 220 222 222 224 225 229 232 229 227 231 231 235 237 234 235 238 239 246 244 244 245 254 256 257 259 260 261 264 271 268 270 271 273 275 276 278 281 283 285 286 289
206 208 207 211 215 220 222 223 219 221 223 222 227 225 225 231 230 231 234 233 237 240 243 247 243 241 246 248 247 247 251 256 260 263 265 265 267 269 270 272 273 274 276 278 280 282 285 286 288
206 208 207 211 214 218 222 224 221 220 224 225 226 224 229 235 234 241 249 235 240 242 243 244 248 249 249 249 255 250 250 255 257 260 262 266 264 266 269 271 272 274 276 279 280 287 285 286 288
206 207 212 212 214 220 223 224 224 221 224 226 227 228 226 228 238 245 237 239 238 239 244 244 246 250 252 253 250 254 252 254 256 257 261 264 266 267 270 271 271 276 281 282 283 284 286 286 287
205 209 212 215 216 219 223 223 228 226 224 228 228 227 229 230 229 241 241 243 239 240 241 245 245 249 248 251 255 254 254 258 261 261 258 261 264 268 270 272 275 280 277 278 280 281 282 285 292
207 213 215 219 220 220 223 223 228 226 226 229 230 230 230 232 233 234 232 237 240 243 243 242 244 246 249 254 255 257 255 260 261 263 266 267 260 264 269 270 273 275 277 280 280 284 284 289 286
206 211 215 219 222 221 223 222 225 227 228 229 230 231 232 231 235 236 235 237 241 242 244 248 248 246 248 256 255 253 259 259 259 257 260 258 260 262 267 270 274 277 275 280 285 283 285 290 296
205 212 215 218 220 224 227 224 224 227 229 230 231 232 234 235 236 238 237 238 242 244 244 245 248 249 254 254 256 258 258 263 267 261 262 263 264 264 264 266 268 269 283 274 279 284 283 284 285
210 211 214 215 221 222 224 228 228 228 230 232 233 233 234 237 238 240 242 238 239 243 247 248 247 249 251 251 253 254 259 257 258 261 268 270 269 269 265 267 269 272 273 274 276 282 280 282 285
213 215 218 220 223 226 227 231 230 233 233 233 235 236 237 239 239 240 242 241 240 242 244 248 249 250 250 252 253 254 257 259 259 258 261 261 264 272 267 270 268 277 270 274 274 284 279 286 281
213 217 222 222 222 226 228 229 229 233 234 237 235 236 237 239 241 241 241 241 243 245 247 244 247 251 252 254 255 257 258 259 260 261 263 264 264 263 264 269 268 270 274 276 280 277 278 281 279